Weather History for Chicago Lansing, IL

Change the Weather History Date:

Thursday, January 16, 2014

  Actual Average (KMDW) Record (KMDW)
Temperature  
Mean Temperature 26 °F 25 °F  
Max Temperature 34 °F 31 °F 56 °F (1990)
Min Temperature 18 °F 18 °F -19 °F (1977)
Degree Days  
Heating Degree Days 39 40  
Month to date heating degree days 639  
Since 1 July heating degree days 2890  
Cooling Degree Days 0 0  
Month to date cooling degree days 0  
Year to date cooling degree days 0  
Moisture  
Dew Point 20 °F    
Average Humidity 76    
Maximum Humidity 92    
Minimum Humidity 60    
Precipitation  
Precipitation 0.00 in 0.07 in 0.43 in (1935)
Month to date precipitation 1.17  
Year to date precipitation 1.17  
Sea Level Pressure  
Sea Level Pressure 29.65 in    
Wind  
Wind Speed 17 mph (SW)    
Max Wind Speed 23 mph    
Max Gust Speed 31 mph    
Visibility 9 miles    
Events Rain , Snow    
T = Trace of Precipitation, MM = Missing Value Source: NWS Daily Summary

Daily Weather History Graph

Daily Weather History Graph

Search for Another Location

Airport:

Trip Planner

Search our weather history database for the weather conditions in past years. The results will help you decide how hot, cold, wet, or windy it might be!

Date:

Astronomy

Jan. 16, 2014 Rise Set
Actual Time 7:13 AM CST 4:46 PM CST
Civil Twilight 6:43 AM CST 5:16 PM CST
Nautical Twilight 6:09 AM CST 5:51 PM CST
Astronomical Twilight 5:36 AM CST 6:24 PM CST
Moon 5:39 PM CST (1/16) 7:06 AM CST (1/16)
Length of Visible Light 10h 33m
Length of Day
9h 32m
Full, 100% of the Moon is Illuminated
Jan 16
Full
Jan 23
Last Quarter
Jan 30
New
Feb 6
First Quarter
Feb 14
Full

Hourly Weather History & Observations

Time (CST) Temp. Windchill Dew Point Humidity Pressure Visibility Wind Dir Wind Speed Gust Speed Precip Events Conditions
12:15 AM 18.5 °F 5.5 °F 13.1 °F 79% 29.89 in 10.0 mi SSW 12.7 mph - N/A   Mostly Cloudy
12:35 AM 19.4 °F 6.0 °F 13.5 °F 78% 29.87 in 10.0 mi South 13.8 mph - N/A   Overcast
12:55 AM 19.9 °F 5.2 °F 13.8 °F 77% 29.86 in 10.0 mi SSW 17.3 mph 21.9 mph N/A   Overcast
1:15 AM 20.3 °F 6.6 °F 14.0 °F 77% 29.84 in 10.0 mi South 15.0 mph 21.9 mph N/A   Overcast
1:35 AM 21.0 °F 7.1 °F 14.2 °F 75% 29.83 in 10.0 mi SSW 16.1 mph 25.3 mph N/A   Overcast
1:55 AM 21.0 °F 4.6 °F 14.0 °F 74% 29.81 in 10.0 mi South 23.0 mph 26.5 mph N/A   Mostly Cloudy
2:15 AM 21.6 °F 7.3 °F 14.4 °F 74% 29.80 in 10.0 mi South 17.3 mph 26.5 mph N/A   Overcast
2:35 AM 22.1 °F 7.2 °F 14.4 °F 72% 29.79 in 10.0 mi SSW 19.6 mph 26.5 mph N/A   Overcast
2:55 AM 22.6 °F 7.9 °F 14.5 °F 71% 29.78 in 10.0 mi SSW 19.6 mph 27.6 mph N/A   Overcast
3:15 AM 22.8 °F 8.9 °F 14.9 °F 72% 29.76 in 10.0 mi SSW 17.3 mph 26.5 mph N/A Snow Light Snow
3:35 AM 23.0 °F 8.0 °F 15.3 °F 72% 29.75 in 10.0 mi South 20.7 mph 27.6 mph N/A   Overcast
3:55 AM 23.0 °F 9.2 °F 15.6 °F 73% 29.73 in 10.0 mi SSW 17.3 mph 27.6 mph N/A   Overcast
4:15 AM 23.7 °F 8.9 °F 15.6 °F 71% 29.71 in 10.0 mi South 20.7 mph 25.3 mph N/A   Overcast
4:35 AM 23.9 °F 8.4 °F 15.6 °F 71% 29.71 in 10.0 mi SSW 23.0 mph 29.9 mph N/A   Overcast
4:55 AM 24.4 °F 10.6 °F 16.2 °F 71% 29.70 in 10.0 mi SSW 18.4 mph 27.6 mph N/A   Overcast
5:15 AM 24.4 °F 11.0 °F 16.5 °F 72% 29.68 in 10.0 mi SSW 17.3 mph 27.6 mph N/A   Overcast
5:35 AM 24.8 °F 10.0 °F 16.3 °F 70% 29.68 in 10.0 mi SSW 21.9 mph 28.8 mph N/A   Overcast
5:55 AM 24.8 °F 11.5 °F 16.9 °F 72% 29.68 in 10.0 mi SSW 17.3 mph 31.1 mph N/A Snow Light Snow
6:15 AM 24.6 °F 10.1 °F 18.1 °F 76% 29.66 in 5.0 mi SSW 20.7 mph 27.6 mph N/A Snow Light Snow
6:35 AM 24.8 °F 12.4 °F 18.7 °F 78% 29.66 in 10.0 mi SSW 15.0 mph 26.5 mph N/A Snow Light Snow
6:55 AM 24.8 °F 11.5 °F 19.4 °F 80% 29.65 in 10.0 mi SSW 17.3 mph 26.5 mph N/A Snow Light Snow
7:15 AM 25.2 °F 10.8 °F 20.1 °F 81% 29.64 in 10.0 mi SSW 20.7 mph 26.5 mph N/A   Overcast
7:35 AM 25.3 °F 12.2 °F 20.8 °F 83% 29.64 in 10.0 mi SSW 17.3 mph 23.0 mph N/A   Overcast
7:55 AM 25.7 °F 13.1 °F 21.2 °F 83% 29.64 in 10.0 mi SSW 16.1 mph 23.0 mph N/A   Overcast
8:15 AM 26.2 °F 13.0 °F 21.9 °F 84% 29.64 in 10.0 mi SSW 18.4 mph 26.5 mph N/A   Overcast
8:35 AM 26.4 °F 13.2 °F 22.8 °F 86% 29.64 in 2.5 mi SSW 18.4 mph 25.3 mph N/A Snow Light Snow
8:55 AM 26.6 °F 13.8 °F 23.0 °F 86% 29.64 in 3.0 mi SSW 17.3 mph 25.3 mph N/A Snow Light Snow
9:15 AM 27.0 °F 14.3 °F 23.0 °F 85% 29.64 in 10.0 mi SSW 17.3 mph 23.0 mph N/A   Overcast
9:35 AM 27.3 °F 14.0 °F 23.4 °F 85% 29.63 in 10.0 mi SSW 19.6 mph 26.5 mph N/A   Overcast
9:55 AM 27.7 °F 14.8 °F 23.9 °F 86% 29.63 in 10.0 mi SSW 18.4 mph 24.2 mph N/A Snow Light Snow
10:15 AM 28.0 °F 14.3 °F 23.9 °F 84% 29.62 in 10.0 mi SSW 21.9 mph 27.6 mph N/A Snow Light Snow
10:35 AM 28.4 °F 15.4 °F 24.3 °F 84% 29.61 in 10.0 mi SSW 19.6 mph 26.5 mph N/A   Overcast
10:55 AM 29.3 °F 16.6 °F 24.8 °F 83% 29.60 in 10.0 mi SSW 19.6 mph 25.3 mph N/A   Overcast
11:15 AM 29.3 °F 17.0 °F 24.8 °F 83% 29.59 in 10.0 mi SSW 18.4 mph 23.0 mph N/A   Overcast
11:35 AM 29.8 °F 17.0 °F 25.2 °F 83% 29.58 in 10.0 mi SSW 20.7 mph 25.3 mph N/A   Overcast
11:55 AM 30.2 °F 18.1 °F 25.3 °F 82% 29.56 in 10.0 mi SSW 18.4 mph 25.3 mph N/A   Overcast
12:15 PM 30.9 °F 18.7 °F 26.1 °F 82% 29.56 in 4.0 mi SSW 19.6 mph 25.3 mph N/A Snow Light Snow
12:35 PM 31.1 °F 19.3 °F 26.2 °F 82% 29.55 in 10.0 mi SSW 18.4 mph 24.2 mph N/A Snow Light Snow
12:55 PM 32.0 °F 20.8 °F 26.6 °F 80% 29.53 in 5.0 mi SSW 17.3 mph 25.3 mph N/A Snow Light Snow
1:15 PM 32.0 °F 21.6 °F 27.1 °F 82% 29.53 in 5.0 mi SSW 15.0 mph 20.7 mph N/A Snow Light Snow
1:35 PM 32.5 °F 21.5 °F 27.9 °F 83% 29.53 in 4.0 mi SW 17.3 mph 21.9 mph N/A Snow Light Snow
1:55 PM 32.2 °F 21.8 °F 28.4 °F 86% 29.52 in 2.5 mi SSW 15.0 mph - N/A Snow Light Snow
2:35 PM 32.9 °F 23.7 °F 28.6 °F 84% 29.52 in 10.0 mi SSW 12.7 mph - N/A Rain Light Rain
2:55 PM 33.1 °F 23.4 °F 28.4 °F 83% 29.52 in 10.0 mi SSW 13.8 mph - N/A Rain Light Rain
3:15 PM 33.4 °F 24.3 °F 28.8 °F 83% 29.52 in 10.0 mi SSW 12.7 mph - N/A   Overcast
3:35 PM 34.0 °F 24.2 °F 28.9 °F 82% 29.53 in 7.0 mi SSW 15.0 mph - N/A Snow Light Snow
3:55 PM 33.8 °F 23.5 °F 29.1 °F 83% 29.53 in 10.0 mi SSW 16.1 mph 20.7 mph N/A Snow Light Snow
4:15 PM 33.8 °F 24.8 °F 30.2 °F 87% 29.54 in 10.0 mi SSW 12.7 mph - N/A Snow Light Snow
4:35 PM 33.8 °F 25.8 °F 30.7 °F 89% 29.54 in 10.0 mi SW 10.4 mph - N/A Rain Light Rain
4:55 PM 33.4 °F 24.8 °F 31.1 °F 91% 29.54 in 7.0 mi SSW 11.5 mph - N/A Rain Light Rain
5:15 PM 33.1 °F 21.2 °F 31.1 °F 92% 29.55 in 7.0 mi WSW 20.7 mph 25.3 mph N/A Rain Light Rain
5:35 PM 32.4 °F 20.9 °F 29.3 °F 88% 29.56 in 10.0 mi West 18.4 mph 26.5 mph N/A   Overcast
5:55 PM 32.0 °F 19.5 °F 27.7 °F 84% 29.57 in 10.0 mi West 21.9 mph 28.8 mph N/A   Overcast
6:15 PM 31.3 °F 18.2 °F 23.0 °F 71% 29.58 in 10.0 mi West 23.0 mph 28.8 mph N/A   Overcast
6:35 PM 30.9 °F 20.7 °F 23.0 °F 72% 29.59 in 10.0 mi West 13.8 mph 21.9 mph N/A   Overcast
6:55 PM 30.2 °F 18.5 °F 20.8 °F 68% 29.60 in 10.0 mi West 17.3 mph 25.3 mph N/A   Overcast
7:15 PM 29.1 °F 16.0 °F 19.0 °F 66% 29.61 in 10.0 mi West 20.7 mph 27.6 mph N/A   Overcast
7:35 PM 28.4 °F 18.0 °F 19.0 °F 68% 29.62 in 10.0 mi West 12.7 mph 20.7 mph N/A   Overcast
7:55 PM 28.0 °F 15.3 °F 16.5 °F 62% 29.63 in 10.0 mi West 18.4 mph 28.8 mph N/A   Overcast
8:15 PM 27.5 °F 15.4 °F 15.6 °F 61% 29.63 in 10.0 mi West 16.1 mph 26.5 mph N/A   Overcast
8:35 PM 26.6 °F 14.3 °F 14.7 °F 61% 29.65 in 10.0 mi West 16.1 mph 25.3 mph N/A   Overcast
8:55 PM 26.2 °F 13.4 °F 14.0 °F 60% 29.66 in 10.0 mi West 17.3 mph 25.3 mph N/A   Overcast
9:15 PM 25.7 °F 14.0 °F 13.6 °F 60% 29.67 in 10.0 mi West 13.8 mph - N/A   Scattered Clouds
9:35 PM 25.2 °F 13.3 °F 13.3 °F 61% 29.68 in 10.0 mi West 13.8 mph 19.6 mph N/A   Clear
9:55 PM 24.4 °F 14.9 °F 13.1 °F 62% 29.68 in 10.0 mi West 9.2 mph 17.3 mph N/A   Scattered Clouds
10:15 PM 23.9 °F 14.2 °F 12.9 °F 63% 29.68 in 10.0 mi West 9.2 mph - N/A   Mostly Cloudy
10:35 PM 23.4 °F 12.2 °F 13.1 °F 65% 29.68 in 10.0 mi West 11.5 mph - N/A   Scattered Clouds
10:55 PM 23.0 °F 13.9 °F 12.9 °F 65% 29.68 in 10.0 mi WNW 8.1 mph - N/A   Mostly Cloudy
11:15 PM 23.0 °F 13.1 °F 10.9 °F 60% 29.68 in 10.0 mi WNW 9.2 mph - N/A   Mostly Cloudy
11:35 PM 22.3 °F 11.5 °F 10.6 °F 61% 29.69 in 10.0 mi West 10.4 mph 16.1 mph N/A   Overcast
11:55 PM 22.1 °F 9.5 °F 10.4 °F 61% 29.69 in 10.0 mi West 13.8 mph 17.3 mph N/A   Overcast